Regional Weather Roundup
Issued by NWS Little Rock, AR

Home | Current Version | Previous Version | Graphics & Text | Print | Product List | Glossary On
Versions: 1 2 3 4 5 6 7 8 9 10 11 12 13 14 15 16 17 18 19 20 21 22 23 24 25 26 27 28 29 30 31
000
ASUS44 KLZK 240705
RWRLZK

WEATHER ROUNDUP FOR ARKANSAS
NATIONAL WEATHER SERVICE LITTLE ROCK AR
200 AM CDT SUN SEP 24 2017

NOTE: "FAIR" INDICATES FEW OR NO CLOUDS BELOW 12,000 FEET WITH NO
SIGNIFICANT WEATHER AND/OR OBSTRUCTIONS TO VISIBILITY.

ARZ001-003-010-029-240800-
NORTHWEST ARKANSAS

CITY           SKY/WX    TMP DP  RH WIND       PRES   REMARKS
FAYETTEVILLE   CLEAR     64  64 100 CALM      29.98F
FORT SMITH     CLEAR     74  67  78 NE3       29.93F
HARRISON       CLEAR     68  65  90 CALM      30.01S
BENTONVILLE    CLEAR     72  65  78 SE7       30.00F
ROGERS         CLEAR     71  66  84 E7        29.99F
SILOAM SPGS    CLEAR     70  64  81 E6        29.98S
HIGHFILL       CLEAR     71  66  84 SE3       29.98F
$$

ARZ004-005-016-240800-
NORTH CENTRAL ARKANSAS

CITY           SKY/WX    TMP DP  RH WIND       PRES   REMARKS
BATESVILLE     CLEAR     69  67  93 NW3       29.99S
FLIPPIN        CLEAR     69  65  86 CALM      29.99S
MTN HOME       CLEAR     71  66  84 E3        29.98F
$$

ARZ040-041-240800-
WEST CENTRAL ARKANSAS

CITY           SKY/WX    TMP DP  RH WIND       PRES   REMARKS
MENA           CLEAR     68  66  94 CALM      29.98R
MOUNT IDA      PTCLDY    69  67  93 CALM      29.94S
$$

ARZ009-017-025-026-028-240800-
NORTHEAST ARKANSAS

CITY           SKY/WX    TMP DP  RH WIND       PRES   REMARKS
CORNING        FAIR      72  70  94 CALM      29.99S
JONESBORO      CLEAR     71  70  96 NE3       29.97S
NEWPORT        CLEAR     69  67  93 NE5       29.97S
BLYTHEVILLE    CLEAR     71  69  93 CALM      29.98S
$$

ARZ022-023-033-042-044-240800-
CENTRAL ARKANSAS

CITY           SKY/WX    TMP DP  RH WIND       PRES   REMARKS
LITTLE ROCK    CLEAR     73  71  93 CALM      29.95S
N LITTLE ROCK    N/A     76  69  79 SE3       29.96R
JACKSONVILLE   CLEAR     71  70  95 CALM      29.95S
CONWAY           N/A     70  68  94 CALM      29.94S
SEARCY         CLEAR     70  70 100 CALM      29.98S
HOT SPRINGS    CLEAR     74  69  85 CALM      29.95S
RUSSELLVILLE   CLEAR     71  68  90 CALM      29.95R
CLINTON        FAIR      68  66  94 CALM      29.99R FOG
$$

ARZ036-240800-
EAST ARKANSAS

CITY           SKY/WX    TMP DP  RH WIND       PRES   REMARKS
WEST MEMPHIS   CLEAR     72  71  97 CALM      29.95F
$$

ARZ050-053-066-070-073-240800-
SOUTHWEST ARKANSAS

CITY           SKY/WX    TMP DP  RH WIND       PRES   REMARKS
ARKADELPHIA    FAIR      69  69 100 CALM      29.94S
CAMDEN         PTCLDY    70  66  88 CALM      29.93S FOG
TEXARKANA      CLEAR     74  69  85 SE3       29.93S
EL DORADO      CLEAR     70  69  97 CALM      29.93F
DE QUEEN       CLEAR     68  68 100 NE5       29.91S
$$

ARZ056-057-069-240800-
SOUTHEAST ARKANSAS

CITY           SKY/WX    TMP DP  RH WIND       PRES   REMARKS
PINE BLUFF     CLEAR     70  68  93 CALM      29.95S
STUTTGART      CLEAR     75  70  84 E3        29.96R
MONTICELLO     CLEAR     73  68  84 CALM      29.94S

$$






USA.gov is the U.S. government's official web portal to all federal, state and local government web resources and services.